Regional Weather Roundup
Issued by NWS Upton, NY

Current Version | Previous Version | Text Only | Print | Product List | Glossary On
Versions: 1 2 3 4 5 6 7 8 9 10 11 12 13 14 15 16 17 18 19 20 21 22 23 24 25 26 27 28 29 30 31 32 33 34 35 36 37 38 39 40 41 42 43 44 45 46 47 48 49 50
000 ASUS41 KOKX 022005 RWROKX REGIONAL WEATHER ROUNDUP NATIONAL WEATHER SERVICE NEW YORK NY 300 PM EST MON MAR 02 2015 NOTE: "FAIR" INDICATES FEW OR NO CLOUDS BELOW 12,000 FEET WITH NO SIGNIFICANT WEATHER AND/OR OBSTRUCTIONS TO VISIBILITY. NYZ071-072-176-178-NJZ106-104-022100- NEW YORK CITY METRO AREA CITY SKY/WX TMP DP RH WIND PRES REMARKS CENTRAL PARK SUNNY 38 11 32 NW13G22 30.16R WCI 30 LAGUARDIA APRT MOSUNNY 38 15 39 NW16G23 30.14R WCI 29 KENNEDY INTL MOSUNNY 38 13 35 NW18G26 30.15R WCI 28 NEWARK/LIBERTY MOSUNNY 38 14 37 NW17G33 30.16R WCI 28 BRNX BOT. GARD N/A N/A N/A N/A NW7 30.13S TETERBORO SUNNY 38 12 34 NW14G28 30.15R WCI 30 $$ NYZ177-179-078>081-022100- LONG ISLAND NEW YORK CITY SKY/WX TMP DP RH WIND PRES REMARKS FARMINGDALE SUNNY 37 13 37 NW16G26 30.12S WCI 28 ISLIP SUNNY 36 15 42 W22G30 30.10R WCI 25 SHIRLEY SUNNY 36 14 40 NW18G31 30.11R WCI 26 WESTHAMPTON SUNNY 36 14 40 NW23G32 30.10R WCI 24 MONTAUK POINT N/A 36 21 54 W8G20 30.07R WCI 30 $$ NYZ052-065-067-022100- HUDSON VALLEY CITY SKY/WX TMP DP RH WIND PRES REMARKS WHITE PLAINS MOSUNNY 34 13 41 NW26G36 30.11R WCI 21 NEWBURGH MOSUNNY 34 14 44 NW18G30 30.14R WCI 23 MONTGOMERY FLURRIES 32 14 47 NW20G31 30.14R WCI 20 POUGHKEEPSIE MOSUNNY 36 12 37 W15G25 30.13R WCI 27 ALBANY PTSUNNY 29 14 53 W36G44 30.12R WCI 12 $$ NJZ001-105-106-008-010-013-015-019>022-104-022100- NEW JERSEY CITY SKY/WX TMP DP RH WIND PRES REMARKS NEWARK/LIBERTY MOSUNNY 38 14 37 NW17G33 30.16R WCI 28 TETERBORO SUNNY 38 12 34 NW14G28 30.15R WCI 30 CALDWELL MOSUNNY 37 11 34 NW17G25 30.16R WCI 27 MORRISTOWN MOSUNNY 37 12 35 NW22G28 30.15R WCI 27 SOMERVILLE SUNNY 40 12 32 NW17G26 30.15R WCI 31 SUSSEX SUNNY 36 11 35 VRB7 30.15R WCI 30 ANDOVER N/A 35 10 35 N9G23 30.14R WCI 28 TRENTON SUNNY 38 12 34 NW13G28 30.18R WCI 30 MILLVILLE SUNNY 39 18 42 NW18G24 30.23 WCI 30 ATLANTIC CITY SUNNY 40 19 43 NW18G29 30.20R WCI 31 WRIGHTSTOWN SUNNY 38 16 40 NW16G25 30.17R WCI 29 TOMS RIVER SUNNY 37 16 41 NW17G25 30.18R WCI 28 BELMAR SUNNY 37 16 41 NW15 30.16R WCI 28 $$ PAZ047>061-062-071-022100- EASTERN PENNSYLVANIA CITY SKY/WX TMP DP RH WIND PRES REMARKS PHILADELPHIA MOSUNNY 39 14 36 W21 30.23R WCI 29 ALLENTOWN SUNNY 36 12 37 NW15G28 30.19R WCI 27 SCRANTON SUNNY 32 11 41 N16 30.19R WCI 21 $$ CTZ002-004>006-009-010-012-RIZ004-006-007-MAZ004-011-015-022100- SOUTHERN NEW ENGLAND IN CT CITY SKY/WX TMP DP RH WIND PRES REMARKS BRADLEY INTL PTSUNNY 33 14 45 NW24G30 30.07R WCI 20 HARTFORD PTSUNNY 36 13 38 NW13G26 30.10R WCI 27 DANBURY SUNNY 34 9 35 NW15G28 30.10R WCI 24 WTRBRY/OXFORD MOSUNNY 34 10 37 NW14G25 30.06R WCI 24 BRIDGEPORT SUNNY 37 14 38 NW12G25 30.09R WCI 29 MERIDEN MOSUNNY 36 12 37 NW16G24 30.09R WCI 26 NEW HAVEN SUNNY 36 12 37 NW14G26 30.09R WCI 27 CHESTER FAIR 34 12 40 W10G20 30.05S WCI 26 GROTON SUNNY 34 14 43 NW20G26 30.06R WCI 23 WILLIMANTIC LGT RAIN 34 12 40 W15G31 30.06R WCI 24 IN RI CITY SKY/WX TMP DP RH WIND PRES REMARKS PROVIDENCE MOSUNNY 34 11 38 NW20G40 30.02R WCI 23 BLOCK ISLAND SUNNY 36 16 44 NW13G24 30.03S WCI 27 WESTERLY SUNNY 36 11 35 NW13G22 30.05R WCI 27 IN MA CITY SKY/WX TMP DP RH WIND PRES REMARKS BOSTON PTSUNNY 34 12 40 NW21G31 29.98R WCI 22 WORCESTER MOSUNNY 29 10 45 W24G37 29.96R WCI 15 WESTFIELD PTSUNNY 33 12 41 NW18G29 30.06R WCI 22 PROVINCETOWN SUNNY 36 19 51 W22G31 29.96R WCI 24 NANTUCKET SUNNY 36 18 48 NW23G32 29.97R WCI 24 $$ ANZ330-335-338-340-345-350-353-355-022100- COASTAL MARINE OBSERVATIONS STATION/POSITION TIME SKY/WX TEMP WIND PRES VSBY WAVE AIR SEA DIR/SP/G HT/PER (UTC) (F) (DEG/KT/KT) (MB) (MI) (FT/S) NY HARB ENTRANCE 2000 37 38 300/ 19/ 23 1020.6 4/ 4 4S FIRE IS NOT AVBL 20S FIRE ISLAND 1900 37 1020.6 6/ 6 23SW MTP 2000 N/A 6/ 6 HUDSON CANYON NOT AVBL EXECUTION ROCKS NOT AVBL WESTERN LI SOUND NOT AVBL CENTRAL LI SOUND NOT AVBL EASTERN LI SOUND NOT AVBL ROBBINS REEF 2000 37 310/ 17/ 22 1019.6 $$ >>>>>>>>>>>>>>>>>>>>>>>>>>>> KEY <<<<<<<<<<<<<<<<<<<<<<<<<<< > < > SKY/WX - SKY CONDITION/PRESENT WEATHER < > TMP - TEMPERATURE IN FAHRENHEIT < > DP - DEWPOINT IN FAHRENHEIT < > RH - RELATIVE HUMIDITY IN PERCENT < > WIND - DIRECTION AND SPEED IN MPH < > PRES - MEAN SEA LEVEL PRESSURE IN INCHES OF HG < > WCI - WIND CHILL INDEX < > VSB - VISIBILITY IN MILES < > HX - HEAT INDEX < > TC - TEMPERATURE IN CELSIUS < > VRB - VARIABLE WIND DIRECTION < > < >>>>>>>>>>>>>>>>>>>>>>>>>>>> KEY <<<<<<<<<<<<<<<<<<<<<<<<<<<

USA.gov is the U.S. government's official web portal to all federal, state and local government web resources and services.